Location: Great Malvern
(52.1167°N, 2.3167°W)
Time: 10:57:24
(UTC+00:00)

Cosmos 2285 Rocket - Pass Details

Date: 18 September 2020
Orbit: 970 x 1000 km, 74.0° (Epoch: 25 October)

Event Time Altitude Azimuth Distance (km) Brightness Sun altitude
Rises 21:19:09 0° 212° (SSW) 3,656 6.9 -26.3°
Reaches altitude 10° 21:21:41 10° 215° (SW) 2,715 6.2 -26.6°
Maximum altitude 21:27:58 69° 299° (WNW) 1,047 4.2 -27.3°
Drops below altitude 10° 21:34:19 10° 23° (NNE) 2,750 6.6 -28.0°
Sets 21:36:55 0° 26° (NNE) 3,706 7.3 -28.3°
